Content
SEND FEEDBACK

Daily
Averages
Monthly
Summary
United States of America

NAPERVILLE, ILLINOIS


Home > North America > United States > Illinois
Elevation: 687 feet     Latitude: 41 49N     Longitude: 088 04W

WEATHER
 
SELECT A DAY
Number of Records: 201,289;   Date Range: 1/1/95 - 12/16/14
 
SHARE

PRINT THIS DATA

[ ← Previous Day ]
WEATHER ALMANAC - JUNE 24, 2013
[ Next Day → ]
[ °C ]   °F
We're sorry. There is no daily almanac available for Naperville, Illinois on June 24, 2013.
WEATHER BY HOUR - JUNE 24, 2013
[ °C ]   °F
Local TimeTemperatureDewpointHumidityBarometerVisibilityWind DirectionWind SpeedGust SpeedPrecipitationEventsConditions
1:51 AM73.9 °F69.1 °F85 %29.96 in10.0 miSSW (200°)8.1 mphOvercast
2:51 AM72.0 °F69.1 °F91 %29.96 in10.0 miSSW (200°)6.9 mphMostly Cloudy
3:51 AM72.0 °F69.1 °F91 %29.97 in10.0 miSouth (190°)9.2 mphMostly Cloudy
4:51 AM72.0 °F69.1 °F91 %29.97 in6.0 miSSW (200°)9.2 mphMostly Cloudy
5:00 AM71.6 °F69.8 °F94 %29.99 in4.0 miSSW (210°)10.4 mphOvercast
5:19 AM71.6 °F69.8 °F94 %30.00 in4.0 miSSW (210°)10.4 mphOvercast
5:51 AM72.0 °F69.1 °F91 %30.01 in4.0 miSW (220°)10.4 mphMostly Cloudy
6:10 AM69.8 °F68.0 °F94 %30.03 in5.0 miSW (230°)11.5 mphOvercast
6:51 AM72.0 °F66.9 °F84 %30.00 in9.0 miWSW (240°)11.5 mphOvercast
7:51 AM73.0 °F66.9 °F81 %30.03 in10.0 miWSW (250°)11.5 mphOvercast
8:51 AM72.0 °F64.9 °F78 %30.04 in10.0 miWSW (240°)8.1 mphOvercast
9:51 AM72.0 °F64.9 °F78 %30.05 in10.0 miWSW (250°)9.2 mph0.00 inRainLight Rain
10:51 AM73.0 °F64.9 °F76 %30.04 in10.0 miWest (270°)11.5 mph0.00 inOvercast
12:51 PM80.1 °F63.0 °F56 %29.92 in10.0 miSSW (210°)4.6 mphScattered Clouds
1:51 PM84.9 °F64.0 °F49 %29.95 in10.0 miSSW (210°)12.7 mphMostly Cloudy
2:51 PM84.9 °F64.0 °F49 %29.94 in10.0 miWSW (240°)10.4 mphMostly Cloudy
3:51 PM87.1 °F71.1 °F59 %29.93 in10.0 miSW (230°)15.0 mphMostly Cloudy
4:51 PM89.1 °F70.0 °F53 %29.94 in10.0 miSW (220°)13.8 mphMostly Cloudy
5:51 PM87.1 °F72.0 °F61 %29.92 in10.0 miSW (220°)18.4 mphMostly Cloudy
5:56 PM80.6 °F69.8 °F70 %30.01 in2.0 miWSW (240°)38.0 mph51.8 mph0.00 inRain-ThunderstormLight Thunderstorms and Rain
5:58 PM77.0 °F69.8 °F78 %30.02 in1.2 miWSW (250°)26.5 mph51.8 mph0.00 inRain-ThunderstormLight Thunderstorms and Rain
6:04 PM68.0 °F64.4 °F88 %29.97 in1.5 miSW (230°)17.3 mph54.1 mph0.11 inRain-ThunderstormHeavy Thunderstorms and Rain
6:15 PM69.8 °F66.2 °F88 %29.94 in5.0 miSouth (190°)10.4 mph0.16 inRainLight Rain
6:51 PM69.1 °F64.9 °F87 %29.90 in10.0 miWSW (240°)13.8 mph18.4 mph0.16 inRainLight Rain
7:51 PM68.0 °F66.0 °F93 %29.87 in10.0 miWSW (240°)9.2 mph0.02 inOvercast
8:51 PM68.0 °F64.9 °F90 %29.88 in10.0 miWSW (240°)6.9 mphOvercast
9:51 PM68.0 °F64.9 °F90 %29.92 in10.0 miVariable4.6 mphOvercast
10:51 PM68.0 °F64.9 °F90 %29.94 in10.0 miSW (220°)6.9 mphOvercast
11:51 PM68.0 °F64.9 °F90 %29.94 in10.0 miWSW (240°)5.8 mphMostly Cloudy
Hourly data recorded from KORD, located miles away from Naperville, Illinois







STORIES FROM OUR PARTNERS